User: anonymous   Login
Location: Elstree
(51.6403°N, 0.2969°W)
Time: 06:33:07
(UTC+00:00)
Language:

Cosmos 1602 - Orbit

View from above orbital plane
View from above orbital plane
View from above satellite
View from above satellite

Ground track
Ground track

The orbit data is extracted from the following two-line orbital elements,

1 15331U 84105A   21134.07367961  .00000416  00000-0  20895-4 0  9990
2 15331  82.5388   5.2999 0015658  41.4579 318.7837 15.14317752997422
Epoch (UTC): 14 May 2021 01:46:05
Eccentricity: 0.0015658
inclination: 82.5388°
perigee height: 512 km
apogee height: 534 km
right ascension of ascending node: 5.2999°
argument of perigee: 41.4579°
revolutions per day: 15.14317752
mean anomaly at epoch: 318.7837°
orbit number at epoch: 99742

The dashed part of the orbit path shows where the satellite is in the earth's shadow,  

DLR